Temp
43 44 44 43 43 43 44 44 44 45 47 46 45 48 48 48 50 53 53 54 56 56 55 55 54 52 52 51 49 46 47 45 44 41 40 40 40 40 39 40 40 42 44
40 42 41 40 40 40 42 43 43 43 44 45 44 45 44 45 46 49 50 50 51 52 53 52 51 50 49 48 47 47 45 45 44 44 39 38 40 39 40 39 40 40 41
38 38 39 37 38 38 38 41 42 43 43 44 45 45 45 43 43 43 44 44 46 46 48 49 50 49 48 47 46 46 46 44 43 44 45 40 35 34 37 37 37 38 38
38 38 37 37 36 36 37 40 41 41 42 42 42 40 39 37 37 38 39 41 41 41 42 43 44 47 47 46 45 47 46 45 44 42 44 40 41 38 37 36 36 36 39
36 36 36 37 36 36 34 36 39 39 39 40 40 39 37 37 37 38 38 38 39 40 39 39 40 40 40 40 42 43 43 44 44 42 42 40 39 39 38 39 35 35 36
36 36 37 37 35 35 35 35 37 37 37 38 37 36 35 35 35 35 34 35 36 37 37 38 37 38 37 37 37 38 39 41 42 42 42 41 41 39 38 36 38 36 37
35 35 35 35 34 34 34 36 35 34 35 36 36 35 34 34 33 33 33 33 33 34 34 35 34 35 35 36 35 35 35 36 36 38 41 42 42 42 42 40 41 38 35
36 35 35 35 34 35 34 34 34 33 34 34 33 33 33 33 33 32 32 32 33 34 33 33 33 33 34 34 34 33 33 34 33 34 35 37 40 42 41 41 38 37 40
35 35 35 35 35 34 34 34 33 32 33 32 32 31 32 31 31 31 31 30 32 36 34 33 34 34 33 34 34 31 31 31 33 33 33 34 36 36 38 40 41 38 34
36 35 35 35 35 35 34 34 34 33 32 32 33 32 31 31 31 30 30 30 29 30 30 30 30 29 30 31 31 31 31 30 31 34 32 33 35 34 33 33 36 36 36
36 36 36 36 36 35 34 33 33 32 32 32 31 31 30 30 30 29 29 29 30 29 29 29 28 28 28 28 27 28 29 30 30 31 30 31 33 34 34 32 32 33 32
36 35 34 34 33 33 32 33 33 33 33 32 32 32 31 30 30 29 29 28 28 28 28 28 29 28 28 27 27 27 27 26 28 29 29 30 33 30 32 33 32 33 33
35 34 33 32 32 32 32 32 32 32 32 32 31 31 31 29 29 29 29 28 28 27 27 27 27 27 28 27 28 27 28 27 27 28 28 29 29 29 30 31 31 32 34
34 32 31 32 32 32 32 31 31 31 31 31 30 29 28 28 28 28 27 26 26 25 26 26 27 27 27 28 28 29 27 27 28 29 29 29 28 28 29 30 30 31 31
31 32 31 31 31 31 31 31 31 31 30 29 29 28 28 28 26 25 23 24 24 25 26 25 25 25 26 28 28 29 27 27 27 28 29 29 29 32 33 31 30 30 29
32 32 33 32 32 32 31 32 30 30 30 28 26 27 23 23 22 21 22 22 22 21 21 21 21 21 25 27 28 28 26 27 27 26 27 28 27 29 32 34 35 34 29
33 33 33 33 33 32 33 30 30 27 23 21 18 18 20 19 19 19 19 18 18 18 17 18 18 17 18 23 25 26 24 23 22 23 24 26 28 27 27 29 31 31 33
33 33 32 32 32 31 31 29 27 24 23 19 17 17 18 15 16 15 14 15 15 14 14 14 14 14 16 20 21 22 21 20 20 21 21 22 22 24 24 24 23 25 26
32 32 33 32 30 29 28 25 23 23 21 20 18 17 14 11 12 8 10 11 11 10 9 12 10 9 10 16 19 19 17 17 17 19 20 20 20 23 25 23 19 20 23
33 33 32 30 28 26 26 23 20 18 18 19 18 16 13 6 6 9 8 9 7 10 10 9 9 8 7 13 17 19 16 13 15 17 19 21 22 24 26 22 19 17 20
32 31 29 28 27 24 21 20 18 16 16 15 13 11 10 5 5 5 6 5 4 7 4 5 6 6 8 9 16 19 17 15 14 14 16 19 22 24 25 26 21 19 22
30 30 27 25 23 21 19 17 15 15 12 10 8 5 0 2 5 -4 0 -1 0 0 1 2 3 7 9 13 16 19 21 22 17 15 17 18 22 24 25 25 25 27 26
31 28 24 21 20 16 15 14 13 12 10 4 0 -5 -1 2 2 -4 0 -0 -1 -1 1 2 3 5 9 10 16 19 21 22 20 20 21 25 26 27 27 26 26 24 20
24 20 18 17 13 11 14 9 9 8 -2 0 -1 -0 -2 -2 -2 3 4 -0 -1 -0 2 2 3 6 10 13 15 15 15 18 19 20 19 20 23 25 25 21 22 21 20
19 18 19 17 12 11 9 5 6 3 1 -1 2 1 -1 -4 -1 1 2 3 5 7 7 10 11 11 10 13 20 21 19 19 21 21 19 17 18 18 18 14 14 15 15
16 14 12 11 9 7 5 2 -1 -1 -3 0 2 -0 -0 -0 2 1 1 9 13 16 17 19 17 15 19 21 22 22 23 23 22 14 8 8 9 11 12 13 14 17 17
MSLP
1024.57 1024.31 1024.07 1023.75 1023.19 1022.32 1021.67 1021.30 1020.79 1020.59 1019.68 1019.16 1019.49 1019.84 1020.63 1021.04 1021.04 1020.88 1020.92 1020.52 1020.29 1020.06 1020.08 1020.20 1020.35 1020.52 1020.80 1021.07 1021.51 1021.95 1022.34 1022.65 1022.94 1023.31 1023.15 1022.85 1022.54 1022.56 1022.48 1022.43 1022.25 1022.02 1021.91
1025.05 1024.89 1024.68 1024.36 1023.93 1023.88 1023.34 1022.76 1022.27 1021.71 1021.31 1021.20 1021.35 1021.58 1021.75 1022.21 1022.47 1022.31 1022.24 1022.17 1021.90 1021.53 1021.14 1021.03 1021.11 1021.27 1021.55 1021.83 1022.07 1022.18 1022.51 1022.70 1022.83 1023.24 1023.78 1023.33 1022.54 1022.24 1021.97 1022.13 1022.20 1022.13 1022.09
1025.82 1025.73 1025.53 1025.40 1025.12 1024.66 1024.16 1023.61 1023.23 1023.07 1023.00 1022.55 1022.16 1022.20 1022.38 1022.96 1023.16 1023.47 1023.43 1023.53 1023.40 1023.15 1022.81 1022.47 1022.14 1021.88 1021.85 1022.23 1022.43 1022.67 1022.96 1023.00 1023.07 1023.12 1023.30 1023.59 1023.67 1023.27 1022.22 1022.12 1022.19 1022.37 1022.52
1025.99 1026.05 1026.06 1025.89 1025.79 1025.50 1025.17 1024.67 1024.40 1023.85 1023.70 1023.66 1023.36 1023.68 1024.27 1024.73 1025.43 1025.24 1025.21 1024.83 1024.39 1024.18 1024.07 1023.80 1023.51 1023.23 1022.90 1022.83 1022.83 1022.65 1022.94 1023.11 1023.21 1023.32 1023.25 1023.40 1023.40 1023.60 1022.83 1022.42 1022.06 1022.05 1022.00
1025.99 1026.11 1026.09 1025.99 1026.07 1025.93 1025.93 1025.28 1024.99 1025.01 1024.85 1024.86 1024.62 1024.86 1025.33 1025.88 1025.93 1025.67 1025.56 1025.56 1025.48 1025.25 1025.13 1024.76 1024.42 1024.03 1024.03 1024.19 1023.78 1023.48 1023.31 1023.18 1023.34 1023.35 1023.18 1023.30 1023.40 1023.54 1023.69 1022.72 1022.26 1021.95 1021.52
1026.40 1026.41 1026.46 1026.61 1026.69 1026.44 1026.22 1026.00 1026.03 1025.94 1025.81 1026.00 1025.83 1025.61 1026.18 1026.64 1026.41 1026.31 1026.11 1026.36 1026.42 1026.25 1026.23 1025.87 1025.60 1025.24 1024.82 1024.42 1024.34 1024.09 1024.18 1023.88 1023.56 1023.16 1023.20 1023.30 1023.22 1023.10 1023.21 1023.08 1022.31 1021.99 1021.25
1026.30 1026.56 1026.68 1026.85 1026.83 1026.62 1026.39 1026.22 1026.35 1026.72 1026.70 1026.52 1026.48 1026.37 1026.60 1027.01 1027.24 1027.37 1027.11 1026.88 1026.90 1027.00 1026.95 1026.41 1026.36 1026.23 1025.90 1025.18 1024.75 1024.46 1024.36 1024.54 1024.34 1024.00 1023.35 1023.11 1022.89 1022.71 1022.80 1022.65 1022.08 1021.75 1021.28
1025.88 1026.21 1026.60 1026.63 1026.76 1026.90 1026.98 1026.86 1026.90 1027.14 1026.90 1026.87 1027.00 1027.07 1027.24 1027.37 1027.50 1027.59 1027.72 1027.46 1027.16 1027.13 1027.46 1027.07 1026.41 1026.36 1026.30 1026.09 1025.30 1024.81 1024.77 1024.52 1024.50 1024.44 1024.11 1023.65 1023.02 1022.71 1022.40 1022.25 1022.20 1021.34 1020.79
1025.55 1025.83 1025.93 1026.35 1026.67 1026.72 1027.07 1027.27 1027.36 1027.39 1027.24 1027.35 1027.40 1027.46 1027.62 1027.65 1027.91 1028.02 1027.93 1027.99 1027.81 1027.26 1027.38 1027.37 1026.78 1026.23 1025.95 1025.92 1025.69 1025.26 1024.87 1024.82 1024.58 1024.33 1024.14 1023.94 1023.33 1022.85 1022.49 1022.09 1021.84 1021.69 1020.66
1025.35 1025.75 1026.16 1026.34 1026.58 1026.83 1027.10 1027.31 1027.35 1027.45 1027.44 1027.50 1027.70 1027.91 1028.08 1028.19 1028.21 1028.25 1028.19 1028.05 1027.85 1027.74 1027.57 1027.48 1027.31 1026.68 1026.26 1025.88 1026.02 1025.54 1025.14 1025.06 1024.56 1024.22 1024.07 1023.63 1023.06 1022.84 1022.50 1021.99 1021.78 1021.44 1021.14
1025.35 1025.76 1026.09 1026.35 1026.55 1026.78 1026.97 1027.23 1027.29 1027.35 1027.46 1027.56 1027.73 1027.98 1028.21 1028.15 1028.06 1028.16 1028.07 1028.10 1028.07 1028.03 1027.90 1027.56 1027.18 1026.83 1026.58 1026.16 1026.35 1025.75 1025.41 1024.93 1024.56 1024.10 1023.81 1023.48 1022.91 1022.50 1022.24 1021.57 1021.56 1021.35 1021.00
1025.55 1025.55 1025.87 1026.29 1026.53 1026.70 1026.86 1026.97 1027.07 1027.23 1027.28 1027.44 1027.69 1027.94 1028.03 1028.08 1028.19 1028.27 1028.28 1028.15 1027.96 1027.73 1027.66 1027.41 1026.97 1026.78 1026.35 1026.17 1025.99 1025.76 1025.35 1024.81 1024.52 1023.88 1023.72 1023.22 1022.55 1022.17 1021.83 1021.41 1020.81 1020.71 1020.52
1025.04 1025.53 1025.91 1026.05 1026.33 1026.61 1026.67 1026.68 1026.94 1027.12 1027.19 1027.43 1027.70 1027.92 1028.15 1028.34 1028.40 1028.27 1028.06 1027.96 1027.89 1027.76 1027.51 1027.41 1027.22 1026.84 1026.55 1026.31 1025.98 1025.40 1024.95 1024.44 1024.20 1023.77 1023.39 1022.74 1022.36 1021.81 1021.52 1021.07 1020.63 1019.96 1019.67
1024.48 1025.19 1025.62 1025.68 1025.96 1026.13 1026.27 1026.46 1026.77 1026.91 1027.26 1027.65 1027.96 1028.21 1028.39 1028.54 1028.57 1028.52 1028.37 1028.26 1028.13 1027.94 1027.59 1027.27 1026.91 1026.63 1026.30 1025.91 1025.49 1025.04 1024.50 1024.01 1023.37 1023.05 1022.64 1022.07 1021.71 1021.28 1021.03 1020.68 1020.02 1019.52 1019.08
1024.21 1024.71 1025.15 1025.37 1025.68 1026.03 1026.11 1026.28 1026.50 1026.79 1027.16 1027.65 1028.00 1028.31 1028.50 1028.59 1028.61 1028.58 1028.47 1028.32 1028.11 1027.84 1027.64 1027.27 1026.91 1026.64 1026.29 1025.58 1024.96 1024.49 1023.94 1023.38 1022.71 1022.19 1021.79 1021.32 1020.86 1020.57 1020.28 1019.91 1019.14 1018.95 1018.37
1023.71 1024.25 1024.69 1024.98 1025.40 1025.66 1025.68 1025.87 1026.29 1026.72 1027.10 1027.60 1028.24 1028.46 1028.59 1028.63 1028.67 1028.60 1028.56 1028.42 1028.24 1028.07 1027.85 1027.48 1027.10 1026.72 1026.28 1025.65 1024.99 1024.34 1023.66 1022.95 1022.17 1021.27 1020.70 1020.48 1020.27 1019.88 1019.47 1019.02 1018.54 1018.23 1017.67
1023.22 1023.67 1024.09 1024.40 1024.66 1024.96 1025.10 1025.61 1026.04 1026.62 1027.32 1027.87 1028.27 1028.38 1028.48 1028.67 1028.78 1028.78 1028.72 1028.62 1028.43 1028.20 1027.92 1027.53 1027.11 1026.64 1026.29 1025.67 1024.82 1024.19 1023.52 1022.82 1022.16 1021.46 1020.73 1020.00 1019.58 1019.29 1018.94 1018.55 1018.08 1017.50 1017.15
1022.94 1023.35 1023.60 1023.98 1024.10 1024.33 1024.79 1025.39 1026.09 1026.77 1027.20 1027.75 1028.24 1028.49 1028.79 1028.99 1028.99 1029.00 1029.02 1028.86 1028.66 1028.37 1027.98 1027.51 1027.18 1026.62 1026.12 1025.42 1024.68 1023.93 1023.08 1022.40 1021.86 1021.36 1020.76 1020.13 1019.48 1019.18 1018.79 1018.19 1017.52 1016.92 1016.39
1022.48 1022.83 1023.06 1023.39 1023.75 1024.18 1024.75 1025.50 1026.31 1026.72 1027.22 1027.84 1028.37 1028.75 1029.00 1029.21 1029.32 1029.47 1029.32 1029.12 1028.76 1028.38 1027.95 1027.48 1027.00 1026.57 1025.91 1025.31 1024.21 1023.34 1022.55 1021.78 1021.23 1020.84 1020.26 1019.71 1019.10 1018.75 1018.19 1017.35 1016.64 1015.87 1014.91
1022.12 1022.36 1022.69 1023.31 1023.83 1024.28 1024.81 1025.51 1026.21 1026.79 1027.38 1027.93 1028.36 1028.83 1029.14 1029.40 1029.61 1029.49 1029.30 1028.94 1028.74 1028.13 1027.77 1027.23 1026.90 1026.27 1025.44 1024.87 1023.79 1022.82 1022.02 1021.12 1020.45 1019.94 1019.36 1018.86 1018.11 1017.49 1016.90 1016.35 1015.81 1014.73 1014.33
1021.77 1022.07 1022.71 1023.17 1023.52 1024.33 1024.96 1025.71 1026.34 1026.89 1027.38 1027.99 1028.53 1029.00 1029.31 1029.50 1029.46 1029.31 1029.11 1028.78 1028.42 1028.00 1027.59 1027.00 1026.38 1025.74 1024.93 1023.96 1023.11 1022.19 1021.15 1020.32 1019.33 1018.63 1018.01 1017.52 1017.00 1016.40 1015.81 1015.15 1014.55 1013.95 1013.35
1021.51 1021.88 1022.62 1023.12 1023.66 1024.38 1025.18 1025.90 1026.39 1026.86 1027.57 1028.22 1028.79 1029.14 1029.24 1029.27 1029.13 1028.97 1028.68 1028.44 1028.15 1027.80 1027.16 1026.46 1025.67 1024.87 1023.90 1023.16 1022.28 1021.26 1020.19 1019.15 1018.20 1017.54 1016.80 1016.12 1015.57 1014.86 1014.21 1013.49 1012.75 1012.10 1011.66
1021.22 1021.52 1022.36 1023.17 1023.89 1024.54 1025.21 1026.00 1026.56 1027.31 1027.98 1028.53 1028.93 1029.10 1029.07 1028.95 1028.71 1028.52 1028.08 1027.93 1027.64 1027.24 1026.61 1025.91 1025.02 1023.85 1022.88 1022.03 1021.10 1020.10 1019.12 1018.04 1016.91 1016.09 1015.17 1014.11 1013.29 1012.55 1011.94 1011.85 1011.49 1011.15 1010.89
1020.95 1021.57 1022.59 1023.40 1024.19 1024.82 1025.55 1026.14 1026.90 1027.56 1028.24 1028.78 1028.89 1028.79 1028.79 1028.62 1028.31 1027.95 1027.55 1027.27 1026.88 1026.33 1025.71 1024.84 1023.91 1022.76 1021.75 1020.75 1019.90 1018.73 1017.57 1016.60 1015.60 1014.69 1013.70 1012.87 1012.02 1011.39 1010.71 1010.34 1010.06 1009.79 1009.47
1020.77 1021.43 1022.19 1023.07 1023.97 1024.93 1025.80 1026.45 1027.03 1027.61 1028.31 1028.49 1028.40 1028.28 1028.28 1028.23 1027.81 1027.38 1026.86 1026.39 1025.74 1025.26 1024.14 1023.30 1022.64 1021.65 1020.71 1019.92 1018.65 1017.50 1016.54 1015.58 1014.56 1013.36 1012.60 1012.03 1011.35 1010.59 1010.06 1009.84 1009.45 1008.95 1008.41
1020.68 1021.60 1022.32 1023.18 1024.09 1024.98 1025.89 1026.49 1026.90 1027.39 1027.87 1028.09 1027.91 1027.86 1027.84 1027.62 1027.29 1026.87 1026.11 1025.51 1024.58 1023.82 1023.24 1022.63 1021.99 1021.18 1020.36 1019.16 1018.12 1017.08 1015.91 1014.99 1014.39 1013.81 1013.43 1012.74 1012.01 1011.11 1010.23 1009.42 1008.46 1007.67 1006.83
Wind_Speed
6 9 11 12 12 14 14 15 16 16 12 7 4 6 7 7 10 10 15 14 13 12 7 4 4 1 2 1 3 2 3 1 2 2 3 3 6 6 5 4 5 6 5
7 9 10 10 12 11 13 15 15 14 12 8 4 5 4 5 6 9 13 15 15 14 11 9 6 6 4 5 2 2 1 1 3 2 1 5 5 3 5 4 5 6 4
6 7 9 9 8 12 11 12 12 14 12 11 6 5 5 4 7 10 9 13 14 15 14 13 9 7 4 3 3 1 2 3 1 3 1 2 4 4 3 3 3 4 4
5 5 6 7 7 8 7 9 12 13 12 11 12 14 9 7 4 4 5 8 12 13 13 12 12 11 7 7 4 2 2 1 4 1 5 2 2 2 6 3 3 4 7
5 6 5 5 4 6 6 6 10 12 11 11 11 9 11 6 5 6 10 11 10 12 13 12 11 10 8 9 9 7 4 1 3 2 1 2 2 2 3 9 5 2 4
5 5 4 5 5 6 6 7 10 10 9 10 11 12 11 9 8 9 8 7 6 8 12 11 10 9 8 8 7 7 8 5 4 3 3 3 3 2 4 5 6 8 5
6 5 5 4 5 6 6 6 7 8 6 9 10 10 9 8 9 6 5 7 5 6 9 8 9 7 7 7 6 6 7 7 6 6 4 3 4 3 4 5 10 7 3
7 6 5 5 6 6 6 6 7 6 6 8 8 7 7 5 5 6 4 4 4 4 6 6 5 6 7 8 7 4 4 5 5 8 7 5 4 3 4 6 6 12 11
7 8 7 6 6 6 6 6 6 6 7 7 6 7 6 7 6 6 5 4 4 6 7 8 9 8 7 8 8 5 5 5 4 5 5 5 5 4 5 6 6 7 10
7 7 6 6 5 6 5 5 5 6 6 6 6 5 6 5 5 4 5 6 5 6 6 6 6 7 7 8 9 7 6 6 5 5 6 5 4 5 4 4 5 6 9
7 7 6 6 6 5 5 5 5 6 6 5 4 5 4 5 5 5 5 5 4 5 5 5 6 6 6 5 6 6 8 9 9 8 6 9 7 5 5 4 4 6 5
6 7 7 7 6 6 5 5 4 4 4 4 4 4 4 5 6 5 5 5 6 5 6 6 8 7 8 6 6 8 7 7 10 11 10 10 7 7 7 6 7 7 8
8 6 7 7 7 7 6 6 5 5 4 3 2 1 3 4 5 5 6 6 6 6 7 7 8 9 9 10 9 9 10 9 9 10 11 12 10 10 7 7 8 7 7
8 7 7 7 7 7 7 7 6 6 5 4 3 1 1 3 4 4 5 5 6 6 7 8 9 10 10 11 10 11 11 10 11 12 12 12 11 12 11 10 10 9 9
9 10 9 8 7 7 7 6 6 6 5 5 3 1 1 2 3 3 3 5 5 6 8 11 11 11 11 9 12 13 13 14 15 15 14 13 14 21 19 12 12 11 9
7 7 7 7 7 8 8 6 6 6 5 5 4 1 1 2 2 4 7 8 9 9 10 10 11 11 9 20 24 22 16 16 16 16 16 15 15 18 25 26 26 21 13
7 8 8 8 8 9 8 8 6 5 6 5 3 2 4 4 5 6 7 8 9 10 10 11 11 12 12 22 24 26 15 16 16 17 16 15 12 15 14 19 26 25 27
6 6 6 6 7 5 5 5 6 5 5 4 4 4 4 4 5 6 7 9 8 10 10 11 12 12 11 24 26 27 17 15 16 16 16 16 17 16 18 18 18 19 18
8 8 8 7 4 6 6 7 6 5 4 4 3 3 3 3 5 6 7 7 8 9 9 10 12 12 13 24 26 23 15 14 15 15 15 14 15 21 26 18 17 19 19
6 7 7 4 6 6 7 7 6 5 5 5 3 1 0 2 4 6 7 6 6 10 9 11 11 13 14 21 25 22 11 13 12 13 15 20 21 26 26 17 15 17 16
9 6 6 8 8 7 7 6 5 5 4 4 3 1 2 3 5 5 5 7 8 10 9 11 10 12 13 14 25 26 14 12 12 11 10 10 24 27 27 27 15 16 19
8 7 7 7 7 7 6 6 6 5 4 3 2 3 3 5 4 4 5 5 6 8 9 10 10 9 11 18 21 26 27 25 15 13 12 13 27 29 29 25 29 32 27
10 6 8 7 6 6 5 6 4 5 4 3 3 3 5 4 5 4 7 5 5 5 7 8 9 10 10 11 25 27 28 27 18 13 20 33 33 33 26 26 28 26 13
8 6 8 9 8 6 5 4 5 5 5 4 5 4 4 5 5 5 5 4 5 5 7 9 10 10 10 10 10 12 13 20 18 20 16 21 27 29 27 18 17 12 12
5 8 11 9 8 7 6 5 5 5 4 4 4 4 3 5 5 5 5 6 7 8 9 9 10 11 11 11 23 22 14 13 17 21 11 11 11 11 8 8 11 11 12
6 7 7 7 7 6 6 5 5 6 5 4 3 3 3 3 4 5 6 13 15 17 20 21 16 9 22 28 28 29 29 29 28 12 10 10 10 11 11 12 13 12 13
Wind_Direction
18 23 19 14 17 25 30 27 26 13 20 18 28 45 55 35 34 33 27 28 27 21 17 13 15 30 198 169 127 105 184 202 102 24 319 280 244 253 251 252 249 251 244
39 34 27 25 30 25 25 27 30 30 33 34 14 29 34 44 50 32 32 25 23 24 32 30 26 32 15 18 27 116 108 251 182 150 121 320 325 287 254 238 247 251 253
57 28 29 18 20 30 25 38 39 39 32 35 46 51 54 36 26 25 27 24 25 24 24 21 20 28 38 26 10 8 284 315 251 233 188 300 259 323 338 314 273 289 277
69 53 35 37 25 25 11 40 42 48 41 34 58 64 66 65 8 15 19 27 30 29 24 23 23 19 16 18 354 342 263 189 270 291 228 232 152 295 311 308 301 253 242
118 97 81 78 42 34 19 38 56 50 48 48 60 72 73 57 43 37 36 28 24 28 22 22 21 28 25 8 3 352 331 270 270 240 286 254 221 179 228 288 302 291 253
129 112 95 63 54 40 42 39 54 52 50 54 59 70 67 56 56 43 45 28 21 20 18 14 15 18 20 20 5 357 347 329 295 258 241 229 257 250 234 259 281 265 282
158 144 113 93 75 60 54 70 72 63 55 69 64 67 72 71 62 44 44 43 26 16 6 14 11 8 1 11 12 17 8 352 339 321 304 275 242 234 261 273 281 279 278
181 163 158 131 110 102 87 83 78 81 72 71 64 63 63 63 60 54 36 32 33 21 352 359 12 4 2 357 4 17 6 3 345 330 323 304 289 277 247 254 286 290 280
184 178 168 155 142 120 111 103 99 82 70 74 68 58 55 56 51 39 36 25 9 11 2 358 357 360 2 359 355 358 355 347 328 319 309 306 296 287 270 268 260 255 288
193 183 178 166 159 143 130 125 111 103 94 81 77 76 70 66 65 48 29 16 359 356 350 347 342 344 345 350 349 345 337 331 326 318 307 303 290 282 267 257 261 253 259
200 188 183 180 162 153 152 140 116 109 102 101 93 80 59 48 47 39 18 2 336 335 333 330 331 332 326 335 324 321 320 328 320 316 299 294 291 291 279 245 250 261 246
208 196 183 173 176 176 168 165 148 127 132 127 110 83 58 35 25 12 352 347 339 337 330 330 332 327 327 326 325 314 310 301 304 303 303 296 298 287 280 278 262 249 253
211 191 185 190 189 189 191 190 186 193 189 175 166 111 28 12 349 339 339 338 331 327 325 323 321 319 319 318 315 307 303 295 282 284 280 287 287 289 285 269 274 266 258
191 195 198 200 199 195 198 202 208 205 203 201 203 218 297 302 301 308 317 324 320 312 314 315 313 311 311 310 303 300 296 289 290 289 284 283 278 278 282 281 279 276 270
196 200 202 206 204 206 213 210 216 204 188 181 184 164 343 321 312 337 334 335 328 330 325 322 316 315 313 309 309 305 299 293 289 285 283 282 281 282 283 284 280 276 274
216 205 213 204 209 215 214 204 210 205 178 157 146 89 62 55 34 8 349 339 333 329 323 317 313 313 310 312 310 306 300 296 293 291 289 288 284 285 287 285 285 280 275
205 206 211 211 214 216 209 208 193 145 140 139 135 92 53 28 7 347 341 334 326 322 319 314 313 312 310 309 309 308 301 296 292 290 292 291 289 292 293 293 289 287 283
211 224 221 224 227 211 187 142 140 146 126 97 86 66 45 9 348 345 331 322 318 317 313 312 308 305 308 311 309 306 298 295 293 291 291 289 291 288 290 287 281 275 270
219 220 214 215 188 178 157 139 139 129 118 129 122 82 39 349 337 320 308 304 307 308 306 302 309 304 302 305 306 308 299 292 292 290 287 287 288 287 286 280 277 274 271
205 213 223 190 175 177 150 147 157 151 166 159 143 92 14 277 276 281 295 296 297 298 301 300 302 296 293 299 304 307 293 291 291 289 286 284 287 290 293 291 288 287 292
223 232 196 202 196 152 145 163 159 193 144 121 122 184 252 246 261 265 279 288 290 292 294 294 294 286 284 288 301 303 299 292 287 282 282 281 286 291 290 287 281 276 278
234 227 199 195 165 150 149 163 186 141 129 134 197 255 276 287 283 259 271 267 278 283 293 296 292 285 288 288 292 299 299 297 297 292 283 278 281 282 279 276 271 274 282
236 199 187 168 161 153 158 169 163 145 162 168 238 261 274 271 267 268 284 289 269 272 291 292 291 292 292 283 285 291 293 288 285 280 279 285 288 285 291 293 288 287 275
211 175 159 181 181 162 153 142 151 155 152 212 246 254 246 265 257 266 272 271 274 282 284 286 284 287 285 293 298 287 282 279 282 282 280 273 276 274 272 272 274 270 266
177 173 189 190 177 158 161 163 165 157 191 215 245 253 249 249 263 252 262 265 262 268 281 289 296 303 307 301 304 315 312 304 300 308 308 310 304 308 287 262 260 259 258
159 171 170 159 158 156 169 182 175 177 187 222 241 237 255 259 274 278 289 290 296 302 304 307 308 308 310 313 319 315 316 321 331 323 324 312 305 300 301 299 295 284 271